This is the latest recevied weather packets stored in our database for station/object NorthRyde. If no packets are shown the sender has not sent any weather packets the latest 10 day(s).
| Time | Temp. | Humidity | Pressure | Rain* | Wind** | Luminosity | Snow |
|---|---|---|---|---|---|---|---|
| 1777597717 | 21.67° C | 75% | 1030.7 hPa | 0 mm | - | 308 W/m² | - |
| 1777597669 | 21.67° C | 75% | 1030.8 hPa | 0 mm | - | 288 W/m² | - |
| 1777597647 | 21.67° C | 75% | 1030.8 hPa | 0 mm | - | 278 W/m² | - |
| 1777597620 | 21.67° C | 75% | 1030.7 hPa | 0 mm | - | 269 W/m² | - |
| 1777597600 | 21.11° C | 75% | 1030.7 hPa | 0 mm | - | 260 W/m² | - |
| 1777597413 | 21.11° C | 76% | 1030.8 hPa | 0 mm | - | 253 W/m² | - |
| 1777597346 | 21.11° C | 76% | 1030.7 hPa | 0 mm | - | 243 W/m² | - |
| 1777597287 | 21.11° C | 76% | 1030.7 hPa | 0 mm | - | 241 W/m² | - |
| 1777597227 | 21.11° C | 77% | 1030.8 hPa | 0 mm | - | 239 W/m² | - |
| 1777597165 | 21.11° C | 78% | 1030.8 hPa | 0 mm | - | 237 W/m² | - |
| 1777597107 | 21.11° C | 78% | 1030.7 hPa | 0 mm | - | 237 W/m² | - |
| 1777597049 | 21.11° C | 77% | 1030.9 hPa | 0 mm | - | 237 W/m² | - |
| 1777596983 | 20.56° C | 77% | 1030.8 hPa | 0 mm | - | 236 W/m² | - |
| 1777596913 | 20.56° C | 77% | 1030.8 hPa | 0 mm | - | 232 W/m² | - |
| 1777596864 | 20.56° C | 77% | 1030.9 hPa | 0 mm | - | 227 W/m² | - |
| 1777596795 | 20.56° C | 77% | 1030.8 hPa | 0 mm | - | 221 W/m² | - |
| 1777596731 | 20.56° C | 77% | 1030.8 hPa | 0 mm | - | 218 W/m² | - |
| 1777596669 | 20.56° C | 77% | 1030.9 hPa | 0 mm | - | 214 W/m² | - |
| 1777596610 | 20.56° C | 77% | 1030.9 hPa | 0 mm | - | 213 W/m² | - |
| 1777596559 | 20.56° C | 77% | 1030.9 hPa | 0 mm | - | 211 W/m² | - |
| 1777596491 | 20.56° C | 78% | 1030.8 hPa | 0 mm | - | 211 W/m² | - |
| 1777596461 | 20.56° C | 78% | 1030.8 hPa | 0 mm | - | 223 W/m² | - |
| 1777596439 | 20.56° C | 77% | 1030.8 hPa | 0 mm | - | 232 W/m² | - |
| 1777596415 | 20.56° C | 77% | 1030.9 hPa | 0 mm | - | 243 W/m² | - |
| 1777596389 | 20.56° C | 77% | 1030.9 hPa | 0 mm | - | 255 W/m² | - |
* Rain latest hour (hover to see other rain measurements)
** Current wind speed in m/s (hover to see current wind gust speed)